Weather History for Alice, TX

Change the Weather History Date:

Friday, February 1, 2013

  Actual Average Record
Temperature  
Mean Temperature 60 °F -  
Max Temperature 75 °F 67 °F 84 °F (2009)
Min Temperature 46 °F 47 °F 28 °F (2008)
Degree Days  
Heating Degree Days 4    
Growing Degree Days 10 (Base 50)    
Moisture  
Dew Point 40 °F    
Average Humidity 53    
Maximum Humidity 77    
Minimum Humidity 20    
Precipitation  
Precipitation 0.00 in - - ()
Sea Level Pressure  
Sea Level Pressure 30.26 in    
Wind  
Wind Speed 5 mph (SE)    
Max Wind Speed 18 mph    
Max Gust Speed 25 mph    
Visibility 10 miles    
Events      
Averages and records for this station are not official NWS values.
T = Trace of Precipitation, MM = Missing Value Source: NWS Daily Summary

Daily Weather History Graph

Daily Weather History Graph

Search for Another Location

Airport:

Trip Planner

Search our weather history database for the weather conditions in past years. The results will help you decide how hot, cold, wet, or windy it might be!

Date:

Astronomy

Feb. 01, 2013 Rise Set
Actual Time 7:18 AM CST 6:13 PM CST
Civil Twilight 6:54 AM CST 6:37 PM CST
Nautical Twilight 6:26 AM CST 7:05 PM CST
Astronomical Twilight 5:58 AM CST 7:33 PM CST
Moon 11:43 PM CST (2/1) 10:27 AM CST (2/1)
Length of Visible Light 11h 43m
Length of Day
10h 54m
Waning Gibbous, 70% of the Moon is Illuminated
Feb 1
Waning Gibbous
Feb 3
Last Quarter
Feb 10
New
Feb 17
First Quarter
Feb 25
Full

Hourly Weather History & Observations

Time (CST) Temp. Dew Point Humidity Pressure Visibility Wind Dir Wind Speed Gust Speed Precip Events Conditions
12:53 AM 53.1 °F 39.9 °F 61% 30.28 in 10.0 mi Calm Calm - N/A   Clear
1:53 AM 52.0 °F 39.9 °F 63% 30.27 in 10.0 mi NE 3.5 mph - N/A   Clear
2:53 AM 50.0 °F 39.9 °F 68% 30.27 in 10.0 mi Calm Calm - N/A   Clear
3:53 AM 46.9 °F 37.9 °F 71% 30.28 in 10.0 mi Calm Calm - N/A   Clear
4:53 AM 48.0 °F 39.0 °F 71% 30.27 in 10.0 mi NE 3.5 mph - N/A   Clear
5:53 AM 48.0 °F 39.9 °F 74% 30.28 in 10.0 mi Calm Calm - N/A   Clear
6:53 AM 46.9 °F 39.9 °F 77% 30.30 in 10.0 mi Calm Calm - N/A   Clear
7:53 AM 46.9 °F 39.9 °F 77% 30.31 in 10.0 mi Calm Calm - N/A   Clear
8:53 AM 59.0 °F 48.9 °F 69% 30.33 in 10.0 mi SSE 4.6 mph - N/A   Clear
9:53 AM 66.0 °F 50.0 °F 56% 30.34 in 10.0 mi SSE 10.4 mph - N/A   Clear
10:53 AM 71.1 °F 39.9 °F 32% 30.32 in 10.0 mi SSE 10.4 mph - N/A   Clear
11:53 AM 73.9 °F 35.1 °F 24% 30.31 in 10.0 mi South 8.1 mph - N/A   Clear
12:53 PM 75.0 °F 36.0 °F 24% 30.27 in 10.0 mi SSE 12.7 mph - N/A   Clear
1:53 PM 75.9 °F 33.1 °F 21% 30.23 in 10.0 mi SE 18.4 mph 25.3 mph N/A   Clear
2:53 PM 75.0 °F 30.9 °F 20% 30.21 in 10.0 mi SE 11.5 mph 21.9 mph N/A   Clear
3:53 PM 73.9 °F 34.0 °F 23% 30.20 in 10.0 mi SE 15.0 mph 23.0 mph N/A   Clear
4:53 PM 71.1 °F 39.9 °F 32% 30.19 in 10.0 mi SE 18.4 mph 25.3 mph N/A   Clear
5:53 PM 66.9 °F 42.1 °F 40% 30.20 in 10.0 mi SE 16.1 mph - N/A   Clear
6:53 PM 63.0 °F 43.0 °F 48% 30.22 in 10.0 mi SE 10.4 mph - N/A   Clear
7:53 PM 59.0 °F 43.0 °F 55% 30.22 in 10.0 mi SE 8.1 mph - N/A   Clear
8:53 PM 55.9 °F 43.0 °F 62% 30.23 in 10.0 mi ESE 4.6 mph - N/A   Clear
9:53 PM 54.0 °F 42.1 °F 64% 30.23 in 10.0 mi ESE 4.6 mph - N/A   Clear
10:53 PM 53.1 °F 44.1 °F 71% 30.22 in 10.0 mi ESE 4.6 mph - N/A   Clear
11:53 PM 53.1 °F 44.1 °F 71% 30.21 in 10.0 mi ESE 3.5 mph - N/A   Clear